Location: Sperry Observatory
(40.6664°N, 74.3236°W)
Time: 18:11:18
(UTC-04:00)

UOSAT-12 - Visible Passes

Search period start: 31 October 2014 00:00
Search period end: 09 November 2014 23:00
Orbit: 594 x 664 km, 64.6° (Epoch: 31 October)

Date Brightness Start Highest point End Pass type
(mag) Time Alt. Az. Time Alt. Az. Time Alt. Az.
01 Nov 9.7 20:08:41 10° N 20:08:50 11° N 20:08:50 11° N visible
02 Nov 9.7 19:28:22 10° NNW 19:28:51 12° N 19:28:51 12° N visible
03 Nov 9.4 18:10:53 10° NNE 18:11:36 11° NNE 18:11:36 11° NNE visible
03 Nov 9.8 19:48:28 10° NNW 19:48:57 13° NNW 19:48:57 13° NNW visible
04 Nov 9.0 18:29:40 10° N 18:31:46 17° NNE 18:31:46 17° NNE visible
04 Nov 10.1 20:08:54 10° NW 20:09:07 11° NW 20:09:07 11° NW visible
05 Nov 8.6 18:49:29 10° NNW 18:52:01 25° N 18:52:01 25° N visible
06 Nov 9.1 17:31:24 10° NNE 17:33:21 12° NE 17:35:02 11° ENE visible
06 Nov 8.4 19:09:40 10° NNW 19:12:24 34° NNW 19:12:24 34° NNW visible
07 Nov 8.5 17:50:41 10° N 17:54:19 22° NE 17:55:34 19° ENE visible
07 Nov 8.7 19:30:11 10° NW 19:32:56 33° WNW 19:32:56 33° WNW visible
08 Nov 7.6 18:10:36 10° NNW 18:15:04 40° NE 18:16:19 33° E visible
08 Nov 9.5 19:51:14 10° WNW 19:53:42 21° W 19:53:42 21° W visible
09 Nov 7.0 18:30:52 10° NNW 18:35:37 85° ENE 18:37:22 38° SE visible
09 Nov 10.3 20:14:17 10° W 20:14:47 10° WSW 20:14:47 10° WSW visible
